Location: Nairn
(57.5833°N, 3.8667°W)
Time: 22:58:42
(UTC+00:00)

N. Korean satellite - Pass Details

Date: 31 October 2020
Orbit: 453 x 503 km, 97.2° (Epoch: 03 December)

Event Time Altitude Azimuth Distance (km) Brightness Sun altitude
Rises 17:26:14 0° 191° (S) 2,525 10.6 -7.8°
Reaches altitude 10° 17:28:29 10° 203° (SSW) 1,642 9.8 -8.1°
Maximum altitude 17:31:36 29° 265° (W) 897 8.9 -8.5°
Drops below altitude 10° 17:34:42 10° 327° (NNW) 1,631 9.5 -8.9°
Sets 17:36:56 0° 339° (NNW) 2,504 10.3 -9.2°
